Zurück zum Katalog

STARLINK-37898

AktivKommunikationSSO
NORAD 69705·PAYLOAD·🇺🇸 United States

Gestartet Jun 28, 2026 von Vandenberg Space Force Base

Loading…

Nächste Überflüge (nächste 24 Stunden)

TLE

AktuellSource: CelesTrak SupGP

Epoche: Sep 15, 2026, 03:27 UTC

1 69705C 26147B   26258.14423611 -.00064964  00000+0 -20165-2 0  2586
2 69705  97.2821 294.5057 0000902  99.5913  62.9607 15.33475379    15

Verfolge STARLINK-37898 in Echtzeit mit AllMySat

Download on the App Store